GFSSW_500_temp_057.txt.gz
Temp
-13 -13 -13 -13 -13 -13 -13 -13 -13 -13 -12 -12 -12 -12 -12 -11 -11 -11 -11 -11 -10 -11 -11 -11 -11 -11 -11 -10 -10 -11 -9 -9 -8 -8 -8 -8 -8 -8 -8 -9 -10 -8 -8 -8 -7
-13 -13 -13 -13 -13 -13 -13 -13 -13 -13 -13 -13 -12 -12 -12 -12 -12 -11 -12 -11 -11 -11 -11 -11 -11 -11 -11 -10 -10 -10 -10 -9 -9 -9 -9 -8 -8 -9 -9 -9 -8 -8 -8 -8 -8
-13 -13 -13 -13 -13 -13 -13 -13 -13 -13 -13 -13 -12 -12 -12 -12 -12 -12 -12 -11 -11 -11 -11 -11 -11 -11 -10 -11 -11 -10 -9 -9 -10 -10 -10 -9 -9 -9 -9 -10 -10 -9 -9 -9 -9
-13 -13 -13 -13 -13 -13 -13 -13 -13 -13 -13 -13 -12 -12 -12 -12 -11 -11 -12 -12 -11 -11 -11 -11 -11 -11 -11 -10 -11 -11 -10 -10 -10 -10 -10 -9 -9 -9 -9 -9 -10 -10 -10 -10 -9
-13 -14 -14 -14 -13 -13 -13 -13 -13 -13 -13 -13 -13 -12 -12 -12 -11 -12 -11 -11 -11 -11 -11 -11 -11 -11 -11 -11 -11 -10 -10 -10 -10 -11 -11 -10 -10 -10 -10 -9 -9 -11 -11 -10 -9
-14 -14 -14 -14 -13 -13 -13 -13 -13 -13 -13 -13 -12 -12 -12 -12 -12 -12 -12 -12 -12 -12 -12 -12 -12 -11 -11 -10 -11 -10 -10 -10 -11 -11 -11 -11 -10 -11 -10 -10 -10 -10 -10 -10 -10
-14 -14 -14 -14 -14 -13 -13 -13 -13 -13 -13 -13 -13 -12 -12 -12 -12 -12 -12 -12 -12 -12 -11 -11 -11 -12 -11 -11 -11 -11 -11 -10 -10 -10 -10 -11 -11 -10 -9 -10 -10 -10 -10 -9 -9
-13 -14 -14 -14 -14 -14 -14 -14 -13 -13 -13 -13 -13 -13 -13 -13 -12 -12 -12 -12 -12 -12 -12 -12 -11 -11 -11 -12 -12 -11 -11 -10 -9 -10 -10 -11 -10 -9 -9 -10 -11 -11 -10 -10 -10
-13 -14 -14 -14 -14 -14 -14 -14 -14 -14 -14 -13 -13 -13 -13 -13 -12 -12 -12 -12 -12 -12 -12 -12 -12 -12 -12 -12 -12 -11 -11 -11 -10 -10 -11 -13 -9 -9 -10 -11 -11 -11 -11 -11 -10
-13 -14 -14 -14 -14 -14 -14 -14 -14 -14 -14 -13 -13 -13 -14 -13 -13 -13 -13 -13 -13 -12 -12 -12 -12 -12 -12 -12 -12 -12 -12 -11 -11 -11 -13 -13 -11 -9 -10 -11 -12 -11 -11 -11 -11
-13 -14 -14 -14 -14 -14 -14 -14 -14 -14 -14 -14 -13 -14 -14 -13 -13 -13 -13 -13 -13 -13 -13 -13 -12 -12 -12 -13 -12 -12 -12 -11 -11 -11 -14 -15 -12 -9 -10 -10 -12 -12 -12 -12 -11
-13 -13 -14 -14 -14 -14 -14 -14 -14 -14 -14 -14 -14 -14 -14 -14 -14 -14 -14 -13 -13 -13 -13 -13 -12 -13 -13 -12 -12 -12 -12 -12 -11 -11 -15 -16 -15 -10 -10 -10 -10 -11 -12 -11 -12
-13 -13 -13 -14 -14 -14 -14 -14 -14 -14 -14 -15 -14 -15 -15 -14 -14 -14 -14 -14 -14 -14 -14 -13 -14 -15 -15 -14 -13 -12 -12 -12 -12 -12 -15 -12 -15 -11 -11 -11 -10 -10 -11 -11 -11
-14 -14 -14 -13 -14 -14 -14 -14 -15 -15 -15 -15 -15 -15 -15 -15 -15 -14 -15 -15 -16 -16 -16 -15 -17 -18 -18 -18 -18 -16 -15 -15 -13 -14 -16 -12 -16 -11 -11 -11 -11 -10 -11 -11 -11
-15 -14 -14 -14 -14 -14 -14 -14 -15 -15 -15 -15 -15 -15 -16 -16 -16 -16 -16 -16 -16 -18 -20 -19 -21 -22 -22 -22 -22 -22 -22 -21 -18 -17 -15 -15 -17 -15 -11 -11 -11 -11 -11 -11 -10
-15 -15 -15 -14 -14 -14 -14 -15 -15 -15 -16 -16 -16 -16 -16 -17 -17 -17 -18 -20 -21 -23 -22 -22 -22 -22 -21 -21 -21 -21 -22 -22 -22 -21 -21 -16 -17 -16 -14 -13 -14 -13 -11 -11 -10
-15 -15 -15 -15 -14 -15 -14 -15 -15 -16 -16 -16 -17 -17 -18 -18 -18 -19 -20 -21 -23 -22 -23 -22 -22 -22 -21 -21 -22 -22 -23 -22 -21 -21 -20 -19 -18 -16 -15 -15 -15 -15 -13 -11 -10
-16 -15 -15 -15 -15 -15 -15 -15 -16 -16 -17 -17 -17 -18 -18 -18 -19 -20 -21 -23 -23 -23 -22 -22 -22 -21 -21 -21 -22 -22 -22 -21 -21 -20 -20 -19 -18 -17 -15 -15 -15 -14 -12 -11 -10
-16 -16 -16 -16 -15 -15 -15 -15 -16 -17 -17 -17 -18 -18 -19 -20 -20 -21 -23 -23 -22 -23 -22 -22 -22 -22 -22 -21 -22 -23 -22 -21 -21 -19 -19 -18 -17 -18 -16 -16 -14 -14 -12 -11 -10
-16 -16 -16 -16 -16 -16 -16 -16 -17 -17 -17 -18 -19 -19 -19 -20 -20 -21 -21 -23 -24 -23 -23 -23 -22 -22 -22 -22 -21 -22 -22 -21 -21 -21 -20 -18 -17 -17 -17 -16 -16 -14 -12 -11 -10
-16 -16 -16 -16 -16 -16 -16 -16 -17 -17 -18 -18 -19 -19 -20 -20 -20 -21 -21 -23 -23 -24 -23 -23 -23 -22 -22 -22 -21 -22 -23 -22 -22 -21 -20 -19 -17 -16 -16 -16 -15 -14 -12 -11 -10
-15 -16 -16 -16 -16 -17 -17 -17 -17 -18 -18 -19 -19 -20 -20 -20 -20 -21 -21 -23 -23 -23 -23 -23 -23 -22 -22 -22 -21 -21 -21 -21 -21 -20 -20 -18 -18 -17 -16 -16 -16 -14 -12 -11 -10
-15 -16 -16 -17 -17 -17 -17 -17 -18 -18 -18 -19 -19 -20 -21 -20 -20 -21 -21 -22 -23 -23 -23 -23 -23 -23 -22 -21 -21 -21 -21 -22 -22 -21 -19 -19 -17 -16 -16 -16 -15 -14 -13 -11 -11
-15 -16 -17 -17 -17 -17 -17 -17 -18 -18 -19 -20 -20 -20 -20 -20 -20 -20 -21 -21 -22 -23 -23 -23 -23 -23 -22 -22 -22 -22 -22 -22 -22 -21 -19 -20 -18 -16 -16 -17 -16 -14 -13 -11 -12
-16 -16 -16 -17 -17 -17 -17 -18 -18 -19 -19 -20 -20 -20 -20 -20 -20 -20 -21 -21 -21 -22 -22 -22 -23 -22 -22 -23 -23 -23 -23 -22 -21 -21 -20 -20 -19 -17 -17 -18 -18 -14 -12 -12 -12
-15 -16 -16 -16 -17 -17 -17 -18 -19 -19 -19 -20 -20 -20 -20 -20 -20 -20 -20 -20 -21 -22 -22 -22 -22 -22 -22 -22 -23 -23 -23 -23 -21 -21 -19 -20 -20 -19 -18 -17 -16 -14 -13 -12 -12
-15 -15 -15 -16 -17 -17 -18 -18 -19 -19 -19 -20 -20 -20 -20 -20 -20 -20 -20 -20 -21 -21 -22 -22 -22 -22 -22 -23 -22 -22 -22 -22 -22 -22 -21 -19 -20 -21 -20 -19 -18 -14 -13 -13 -12

GFSSW_500_temp_060.txt.gz
Temp
-13 -13 -13 -13 -13 -13 -13 -13 -13 -13 -13 -13 -13 -12 -12 -12 -11 -11 -10 -10 -11 -11 -11 -11 -11 -11 -12 -12 -11 -10 -10 -9 -9 -9 -8 -9 -9 -9 -9 -10 -9 -10 -10 -9 -8
-13 -13 -13 -13 -13 -13 -13 -13 -13 -13 -13 -13 -13 -12 -12 -12 -12 -11 -11 -11 -10 -11 -10 -11 -11 -11 -11 -11 -11 -11 -10 -9 -9 -9 -9 -9 -9 -9 -9 -9 -8 -10 -10 -8 -9
-13 -13 -13 -13 -13 -13 -13 -13 -13 -13 -13 -13 -13 -13 -12 -12 -12 -12 -12 -11 -11 -11 -11 -11 -12 -11 -11 -11 -11 -11 -9 -10 -10 -10 -10 -10 -9 -9 -9 -10 -9 -9 -10 -9 -9
-13 -13 -13 -13 -13 -13 -13 -13 -13 -13 -13 -13 -13 -13 -13 -12 -11 -12 -12 -12 -12 -11 -11 -11 -11 -11 -11 -11 -11 -11 -10 -10 -10 -10 -10 -10 -10 -9 -9 -9 -9 -11 -10 -9 -8
-13 -13 -13 -14 -14 -14 -14 -14 -13 -13 -13 -13 -13 -13 -13 -12 -12 -12 -12 -12 -12 -12 -12 -11 -11 -11 -11 -11 -11 -10 -10 -10 -10 -10 -11 -11 -10 -9 -9 -9 -10 -10 -10 -10 -10
-13 -13 -13 -13 -14 -14 -13 -13 -13 -13 -13 -13 -13 -13 -13 -12 -13 -12 -12 -12 -12 -12 -12 -12 -12 -11 -10 -10 -10 -10 -10 -10 -11 -11 -10 -10 -10 -11 -9 -10 -10 -11 -9 -10 -9
-13 -13 -13 -13 -13 -14 -14 -14 -14 -13 -13 -13 -13 -13 -13 -12 -12 -12 -12 -12 -12 -12 -12 -12 -12 -12 -11 -11 -11 -11 -10 -10 -10 -10 -10 -11 -10 -10 -9 -10 -10 -10 -10 -10 -10
-13 -13 -13 -14 -14 -14 -14 -14 -14 -14 -14 -14 -13 -13 -13 -13 -12 -12 -12 -12 -12 -12 -12 -12 -12 -12 -12 -12 -12 -12 -11 -10 -9 -10 -10 -12 -10 -9 -10 -10 -10 -10 -11 -10 -10
-13 -13 -13 -14 -14 -14 -14 -14 -14 -14 -14 -14 -14 -14 -13 -13 -13 -13 -13 -12 -12 -12 -12 -12 -12 -12 -12 -12 -12 -12 -11 -11 -10 -11 -11 -13 -11 -9 -10 -10 -11 -11 -11 -11 -11
-13 -13 -13 -13 -14 -14 -14 -14 -14 -14 -14 -14 -14 -14 -13 -13 -13 -13 -12 -12 -12 -12 -12 -12 -12 -12 -12 -12 -11 -12 -12 -12 -11 -11 -12 -14 -12 -9 -10 -10 -10 -11 -11 -11 -11
-14 -14 -13 -13 -13 -14 -14 -14 -14 -14 -14 -14 -14 -14 -14 -14 -13 -13 -13 -13 -13 -13 -13 -13 -13 -13 -13 -13 -12 -12 -12 -12 -11 -11 -13 -15 -13 -10 -10 -11 -10 -10 -10 -11 -11
-14 -14 -14 -13 -13 -13 -14 -14 -14 -14 -14 -14 -14 -14 -14 -14 -13 -13 -13 -13 -13 -13 -13 -13 -13 -14 -13 -13 -13 -13 -13 -12 -12 -12 -13 -13 -12 -11 -11 -10 -10 -11 -11 -11 -11
-15 -14 -14 -14 -14 -14 -14 -14 -14 -14 -14 -14 -14 -14 -14 -15 -14 -15 -15 -14 -14 -14 -14 -14 -14 -14 -14 -14 -13 -13 -13 -13 -13 -13 -15 -12 -12 -12 -11 -11 -11 -12 -10 -11 -11
-15 -15 -15 -14 -14 -14 -14 -14 -14 -14 -14 -14 -15 -15 -15 -15 -15 -15 -14 -14 -14 -14 -14 -14 -15 -15 -15 -14 -15 -15 -16 -16 -15 -15 -14 -14 -13 -13 -11 -11 -11 -11 -11 -9 -10
-16 -15 -15 -15 -14 -14 -14 -14 -14 -14 -15 -15 -15 -15 -15 -15 -15 -15 -15 -15 -14 -15 -15 -17 -18 -19 -18 -19 -20 -20 -20 -21 -20 -20 -19 -16 -15 -11 -12 -11 -11 -11 -11 -12 -10
-16 -16 -15 -15 -15 -15 -15 -15 -14 -15 -15 -15 -15 -15 -16 -16 -16 -17 -17 -17 -18 -19 -21 -20 -21 -21 -20 -21 -21 -21 -21 -21 -21 -21 -21 -14 -19 -12 -12 -12 -12 -12 -12 -12 -12
-15 -16 -16 -15 -15 -15 -15 -15 -15 -16 -16 -16 -16 -17 -17 -17 -18 -18 -19 -19 -22 -20 -20 -20 -21 -21 -20 -20 -21 -20 -21 -21 -22 -21 -21 -18 -21 -14 -14 -13 -13 -15 -15 -14 -13
-15 -15 -16 -16 -15 -15 -15 -16 -16 -17 -16 -17 -17 -17 -17 -20 -19 -19 -21 -22 -22 -20 -20 -21 -20 -21 -21 -21 -21 -20 -21 -21 -21 -21 -20 -20 -20 -18 -15 -15 -15 -14 -14 -14 -14
-15 -15 -15 -16 -16 -16 -15 -15 -16 -16 -16 -17 -17 -18 -19 -20 -20 -20 -22 -22 -21 -21 -21 -22 -22 -22 -22 -22 -21 -21 -21 -22 -21 -20 -21 -19 -19 -19 -19 -16 -15 -14 -14 -14 -12
-15 -15 -15 -16 -16 -16 -15 -16 -16 -16 -16 -17 -17 -18 -19 -19 -19 -20 -20 -22 -22 -22 -22 -23 -22 -23 -22 -22 -21 -21 -21 -21 -20 -20 -20 -20 -19 -18 -19 -16 -15 -15 -15 -14 -13
-15 -15 -15 -16 -16 -16 -16 -16 -16 -16 -17 -17 -18 -18 -19 -19 -19 -20 -20 -21 -21 -21 -22 -23 -23 -22 -23 -22 -21 -21 -22 -21 -21 -21 -21 -20 -18 -18 -18 -17 -16 -15 -15 -14 -14
-14 -15 -15 -15 -16 -16 -16 -16 -16 -17 -17 -18 -18 -19 -19 -19 -20 -20 -20 -20 -21 -21 -22 -23 -23 -22 -22 -22 -21 -21 -21 -21 -21 -21 -20 -19 -18 -17 -17 -16 -15 -16 -15 -15 -14
-14 -15 -15 -15 -16 -16 -16 -16 -17 -17 -18 -18 -18 -19 -20 -20 -19 -20 -20 -20 -20 -21 -22 -22 -22 -22 -22 -22 -21 -22 -21 -21 -21 -20 -19 -19 -18 -16 -16 -15 -16 -16 -15 -16 -13
-14 -14 -15 -15 -16 -16 -16 -17 -17 -18 -18 -18 -19 -19 -20 -20 -20 -19 -20 -19 -20 -20 -21 -22 -22 -22 -21 -22 -22 -21 -22 -21 -21 -21 -20 -20 -18 -16 -16 -16 -15 -15 -15 -15 -13
-15 -15 -15 -15 -15 -16 -16 -17 -17 -18 -19 -19 -19 -19 -20 -20 -20 -19 -20 -20 -20 -20 -21 -21 -21 -21 -21 -21 -22 -22 -21 -22 -21 -19 -21 -21 -20 -20 -18 -17 -15 -16 -17 -15 -12
-15 -15 -15 -15 -16 -16 -16 -17 -17 -18 -19 -19 -19 -19 -20 -20 -19 -20 -20 -20 -20 -20 -21 -21 -21 -21 -21 -21 -22 -22 -20 -22 -21 -20 -20 -20 -20 -21 -19 -17 -18 -18 -18 -15 -14
-15 -15 -15 -16 -16 -16 -16 -17 -17 -18 -19 -19 -19 -19 -20 -20 -20 -19 -20 -20 -20 -20 -21 -21 -21 -21 -21 -21 -21 -21 -22 -20 -19 -19 -21 -21 -21 -21 -20 -19 -19 -19 -18 -18 -15

GFSSW_500_temp_063.txt.gz
Temp
-12 -12 -12 -12 -12 -13 -13 -13 -13 -13 -13 -14 -14 -14 -14 -13 -12 -12 -11 -12 -12 -12 -12 -12 -12 -12 -11 -12 -12 -12 -10 -8 -10 -10 -9 -10 -9 -8 -9 -8 -9 -9 -9 -9 -9
-11 -12 -12 -12 -13 -13 -13 -13 -13 -13 -13 -13 -14 -13 -14 -13 -12 -12 -12 -11 -12 -12 -12 -12 -12 -12 -12 -12 -12 -11 -10 -8 -10 -11 -11 -11 -10 -9 -9 -10 -10 -9 -10 -9 -9
-12 -12 -12 -13 -13 -13 -13 -13 -13 -13 -13 -13 -13 -13 -13 -13 -12 -13 -12 -12 -12 -12 -11 -11 -12 -12 -11 -12 -12 -11 -9 -10 -10 -11 -12 -12 -11 -10 -9 -10 -10 -10 -10 -11 -10
-12 -12 -13 -13 -13 -14 -14 -14 -14 -14 -14 -13 -13 -13 -13 -13 -13 -13 -13 -12 -12 -12 -12 -12 -12 -12 -12 -11 -12 -11 -10 -10 -10 -11 -12 -12 -12 -11 -10 -9 -10 -10 -10 -10 -9
-12 -13 -13 -13 -13 -14 -14 -14 -14 -14 -14 -14 -13 -13 -13 -13 -13 -13 -13 -13 -12 -12 -12 -12 -12 -12 -12 -12 -12 -11 -11 -11 -11 -11 -11 -11 -11 -11 -10 -10 -10 -10 -10 -9 -9
-13 -13 -13 -13 -13 -13 -14 -14 -14 -14 -14 -13 -13 -13 -13 -13 -13 -13 -13 -13 -13 -13 -12 -12 -12 -11 -11 -11 -11 -11 -11 -10 -10 -10 -11 -11 -11 -11 -10 -10 -10 -10 -11 -10 -9
-13 -13 -13 -13 -13 -14 -14 -14 -14 -14 -14 -14 -13 -13 -13 -13 -13 -13 -13 -13 -12 -12 -13 -12 -12 -12 -12 -12 -12 -11 -11 -11 -10 -11 -11 -11 -10 -10 -10 -10 -10 -10 -11 -11 -11
-13 -13 -13 -13 -13 -13 -14 -14 -14 -14 -14 -14 -14 -14 -13 -13 -13 -13 -13 -13 -12 -12 -12 -12 -12 -12 -12 -12 -12 -12 -11 -10 -10 -11 -11 -13 -10 -9 -10 -10 -10 -10 -11 -12 -11
-14 -14 -13 -13 -13 -13 -14 -14 -14 -14 -14 -14 -14 -14 -13 -13 -13 -13 -13 -13 -13 -12 -13 -13 -12 -12 -12 -12 -12 -12 -11 -11 -10 -12 -12 -13 -11 -10 -11 -11 -10 -11 -11 -12 -13
-14 -14 -14 -13 -13 -13 -13 -14 -14 -14 -14 -14 -14 -14 -14 -13 -14 -14 -13 -13 -13 -13 -13 -13 -12 -12 -13 -13 -12 -13 -12 -12 -11 -12 -14 -14 -12 -10 -11 -11 -10 -10 -11 -11 -12
-15 -14 -14 -14 -13 -13 -13 -13 -13 -14 -14 -14 -14 -14 -14 -14 -14 -14 -14 -14 -14 -13 -13 -13 -13 -13 -13 -13 -13 -13 -13 -12 -11 -12 -13 -12 -11 -9 -10 -10 -10 -11 -10 -10 -10
-15 -15 -15 -14 -14 -14 -14 -14 -13 -14 -14 -14 -14 -14 -14 -14 -14 -14 -14 -14 -14 -14 -14 -14 -14 -14 -14 -13 -13 -13 -13 -12 -12 -13 -14 -13 -12 -10 -10 -10 -10 -10 -10 -10 -10
-16 -16 -15 -15 -14 -14 -14 -14 -14 -13 -13 -14 -14 -14 -15 -15 -15 -15 -15 -15 -15 -15 -14 -14 -14 -14 -14 -14 -14 -14 -14 -13 -13 -14 -14 -13 -13 -11 -11 -11 -11 -10 -10 -10 -10
-16 -15 -15 -15 -15 -14 -14 -14 -14 -14 -13 -14 -14 -15 -15 -15 -15 -15 -15 -15 -15 -15 -15 -15 -15 -15 -15 -14 -15 -13 -15 -15 -14 -15 -14 -16 -13 -12 -11 -11 -11 -11 -11 -10 -10
-16 -15 -15 -15 -15 -15 -15 -14 -14 -14 -14 -14 -15 -15 -15 -16 -16 -16 -15 -15 -15 -15 -15 -16 -15 -16 -16 -16 -18 -15 -18 -17 -17 -18 -15 -15 -15 -11 -11 -11 -11 -11 -11 -11 -11
-15 -15 -15 -16 -15 -15 -15 -15 -15 -15 -15 -14 -15 -15 -15 -15 -16 -16 -16 -16 -16 -16 -17 -19 -19 -20 -19 -19 -21 -19 -21 -20 -20 -21 -19 -16 -19 -14 -13 -12 -12 -11 -12 -12 -12
-14 -15 -15 -15 -15 -16 -15 -15 -15 -15 -15 -15 -16 -16 -17 -18 -17 -17 -18 -18 -18 -19 -19 -19 -19 -20 -20 -20 -21 -21 -20 -20 -21 -20 -20 -20 -22 -17 -13 -13 -12 -12 -12 -14 -13
-14 -14 -15 -15 -15 -16 -16 -15 -15 -16 -16 -16 -16 -17 -18 -18 -19 -19 -19 -20 -21 -20 -19 -19 -19 -20 -20 -21 -21 -21 -21 -21 -21 -20 -19 -20 -20 -18 -17 -17 -14 -12 -13 -14 -15
-14 -14 -14 -15 -15 -16 -16 -16 -16 -16 -16 -17 -17 -17 -17 -18 -18 -19 -19 -20 -20 -19 -19 -19 -19 -21 -21 -22 -22 -21 -21 -21 -21 -20 -20 -20 -19 -19 -19 -19 -19 -16 -15 -16 -16
-14 -14 -14 -15 -15 -16 -16 -16 -16 -16 -16 -17 -17 -17 -18 -18 -19 -19 -19 -20 -19 -20 -20 -20 -20 -21 -22 -23 -22 -22 -21 -21 -21 -21 -21 -19 -20 -20 -19 -19 -19 -16 -16 -15 -15
-14 -14 -14 -15 -15 -15 -16 -16 -16 -16 -17 -17 -18 -18 -18 -19 -19 -19 -20 -20 -19 -19 -20 -20 -21 -21 -22 -23 -22 -22 -21 -21 -21 -21 -20 -20 -20 -20 -19 -19 -19 -18 -15 -15 -15
-14 -14 -14 -14 -14 -15 -15 -15 -16 -16 -17 -18 -18 -18 -18 -19 -19 -19 -20 -20 -19 -19 -19 -20 -20 -21 -21 -22 -22 -21 -21 -21 -21 -21 -21 -21 -20 -20 -19 -18 -18 -17 -15 -15 -15
-14 -14 -14 -14 -15 -15 -15 -16 -16 -16 -17 -18 -19 -19 -19 -19 -19 -19 -20 -20 -20 -19 -19 -20 -21 -20 -21 -22 -21 -22 -22 -21 -21 -21 -21 -21 -21 -20 -20 -18 -17 -17 -15 -15 -15
-14 -15 -15 -15 -15 -15 -16 -16 -16 -17 -17 -17 -19 -19 -19 -20 -20 -19 -19 -20 -20 -20 -20 -20 -21 -21 -21 -21 -21 -21 -21 -21 -21 -21 -21 -21 -21 -20 -21 -19 -18 -17 -16 -15 -15
-15 -15 -15 -15 -16 -16 -16 -16 -16 -16 -17 -17 -18 -19 -19 -19 -20 -20 -19 -20 -20 -20 -20 -20 -20 -20 -21 -21 -21 -21 -21 -20 -21 -22 -21 -20 -20 -20 -20 -19 -17 -16 -16 -15 -16
-15 -15 -15 -16 -16 -16 -16 -16 -16 -17 -17 -18 -18 -19 -19 -19 -20 -20 -20 -20 -20 -20 -20 -20 -20 -20 -20 -21 -21 -20 -21 -21 -21 -21 -21 -21 -21 -20 -20 -19 -18 -16 -16 -15 -16
-15 -15 -16 -15 -16 -16 -16 -16 -16 -17 -17 -17 -18 -18 -19 -19 -20 -20 -20 -20 -20 -20 -20 -21 -20 -20 -20 -20 -20 -20 -21 -21 -21 -21 -21 -21 -20 -21 -20 -19 -19 -18 -17 -15 -16

GFSSW_500_temp_069.txt.gz
Temp
-12 -12 -12 -12 -12 -12 -12 -12 -12 -12 -13 -13 -13 -13 -13 -13 -13 -13 -13 -13 -13 -14 -14 -14 -14 -14 -13 -13 -13 -13 -12 -10 -10 -11 -11 -13 -10 -9 -9 -10 -10 -9 -9 -9 -8
-12 -12 -12 -12 -12 -12 -12 -12 -12 -12 -13 -13 -13 -13 -13 -13 -14 -14 -13 -14 -14 -14 -14 -14 -15 -14 -13 -14 -13 -13 -11 -11 -12 -13 -12 -10 -10 -9 -9 -10 -10 -9 -9 -9 -9
-13 -13 -13 -12 -12 -12 -12 -12 -12 -12 -13 -13 -13 -13 -13 -14 -14 -14 -14 -14 -14 -14 -14 -15 -14 -14 -14 -14 -14 -12 -12 -12 -12 -13 -13 -11 -10 -10 -9 -9 -10 -10 -10 -9 -8
-13 -13 -13 -13 -13 -12 -12 -12 -13 -13 -13 -14 -14 -14 -14 -14 -14 -14 -14 -14 -14 -14 -14 -15 -14 -14 -14 -14 -14 -13 -12 -12 -12 -12 -12 -11 -11 -10 -10 -9 -10 -11 -10 -10 -9
-13 -13 -13 -13 -13 -12 -12 -12 -13 -13 -13 -14 -14 -14 -14 -14 -14 -14 -14 -14 -14 -14 -15 -15 -14 -14 -14 -13 -13 -13 -12 -11 -12 -12 -11 -12 -12 -11 -10 -9 -11 -11 -11 -10 -10
-14 -13 -13 -13 -13 -13 -13 -13 -13 -13 -14 -14 -14 -14 -14 -14 -14 -14 -14 -14 -14 -14 -14 -14 -14 -14 -14 -14 -14 -13 -13 -13 -13 -13 -13 -13 -12 -12 -10 -10 -11 -12 -12 -11 -10
-15 -14 -14 -13 -13 -13 -13 -13 -13 -13 -13 -14 -14 -14 -14 -14 -14 -14 -14 -14 -15 -15 -14 -14 -14 -14 -14 -14 -13 -13 -13 -13 -13 -13 -12 -13 -12 -10 -11 -12 -11 -13 -12 -12 -11
-15 -15 -14 -14 -13 -13 -13 -13 -13 -13 -13 -13 -14 -14 -15 -15 -14 -14 -14 -14 -14 -14 -14 -14 -14 -14 -14 -14 -13 -13 -13 -13 -13 -13 -13 -12 -10 -11 -12 -12 -11 -11 -12 -12 -12
-15 -15 -15 -14 -14 -13 -13 -13 -13 -13 -13 -13 -14 -14 -15 -15 -15 -14 -14 -14 -14 -14 -14 -14 -14 -14 -14 -14 -14 -13 -13 -13 -13 -13 -13 -12 -11 -11 -11 -11 -10 -11 -12 -12 -12
-14 -14 -15 -15 -14 -14 -13 -13 -13 -13 -13 -14 -14 -14 -15 -15 -15 -15 -15 -14 -14 -14 -14 -14 -14 -14 -14 -13 -13 -13 -13 -13 -13 -13 -13 -12 -11 -11 -11 -11 -11 -11 -11 -11 -11
-14 -14 -14 -15 -15 -14 -14 -14 -14 -14 -14 -14 -14 -14 -15 -15 -15 -15 -15 -15 -15 -14 -14 -14 -14 -14 -14 -14 -14 -13 -13 -13 -13 -13 -13 -12 -11 -11 -11 -11 -11 -11 -12 -11 -11
-14 -14 -14 -15 -15 -15 -14 -14 -14 -14 -14 -14 -14 -14 -15 -15 -15 -16 -16 -16 -16 -15 -15 -15 -15 -14 -14 -14 -14 -14 -14 -13 -13 -13 -13 -12 -11 -12 -12 -11 -11 -11 -11 -11 -11
-13 -14 -14 -14 -15 -15 -15 -15 -15 -14 -14 -14 -14 -15 -15 -15 -15 -16 -16 -16 -16 -16 -16 -16 -15 -15 -15 -15 -15 -15 -14 -14 -13 -13 -13 -12 -11 -11 -12 -12 -12 -11 -11 -11 -11
-13 -13 -13 -14 -15 -15 -15 -15 -15 -15 -15 -14 -15 -15 -16 -16 -16 -16 -16 -16 -16 -16 -16 -16 -16 -16 -16 -16 -16 -16 -16 -14 -14 -14 -13 -13 -11 -11 -11 -12 -12 -12 -12 -12 -11
-13 -13 -13 -14 -14 -14 -15 -15 -15 -15 -15 -15 -16 -16 -16 -16 -16 -16 -16 -16 -16 -16 -17 -17 -17 -17 -17 -17 -17 -17 -16 -16 -16 -15 -14 -14 -14 -11 -12 -12 -12 -13 -12 -12 -11
-13 -13 -13 -14 -14 -15 -15 -15 -15 -15 -15 -16 -16 -16 -16 -16 -16 -16 -17 -17 -17 -16 -17 -17 -17 -17 -17 -17 -17 -17 -17 -16 -16 -16 -15 -16 -16 -10 -12 -13 -13 -13 -12 -12 -11
-13 -13 -14 -14 -14 -14 -15 -15 -15 -15 -15 -16 -15 -16 -16 -16 -17 -16 -17 -17 -17 -17 -18 -18 -18 -18 -18 -18 -18 -18 -18 -17 -17 -17 -17 -17 -18 -12 -13 -14 -14 -13 -13 -12 -12
-14 -14 -14 -14 -14 -14 -15 -15 -15 -15 -16 -16 -16 -16 -17 -17 -17 -18 -18 -18 -18 -18 -18 -18 -18 -19 -19 -19 -18 -18 -18 -19 -19 -19 -19 -19 -18 -13 -16 -17 -17 -15 -14 -13 -12
-14 -14 -14 -14 -14 -15 -15 -15 -15 -16 -16 -16 -17 -17 -17 -17 -18 -18 -19 -19 -18 -19 -19 -19 -19 -19 -20 -19 -19 -19 -19 -19 -21 -21 -22 -21 -20 -20 -19 -19 -19 -19 -17 -16 -14
-14 -14 -14 -14 -15 -15 -15 -15 -15 -16 -16 -16 -16 -17 -17 -18 -18 -19 -19 -19 -19 -19 -19 -19 -18 -19 -20 -19 -19 -19 -19 -20 -21 -21 -22 -21 -21 -20 -20 -20 -20 -20 -19 -19 -17
-14 -14 -15 -15 -15 -15 -15 -15 -16 -16 -16 -16 -16 -17 -17 -18 -18 -19 -19 -19 -19 -19 -19 -20 -19 -19 -19 -19 -19 -20 -20 -21 -21 -22 -22 -21 -20 -20 -20 -20 -20 -20 -19 -19 -19
-14 -14 -15 -15 -15 -15 -15 -16 -16 -16 -16 -16 -16 -16 -17 -18 -18 -19 -19 -19 -19 -19 -19 -20 -19 -19 -19 -19 -19 -20 -21 -21 -22 -22 -22 -21 -20 -20 -20 -20 -20 -19 -19 -19 -18
-14 -14 -14 -15 -15 -16 -16 -16 -16 -16 -16 -16 -17 -17 -18 -18 -18 -18 -19 -19 -19 -20 -20 -20 -19 -19 -19 -20 -20 -20 -21 -22 -22 -22 -21 -22 -20 -20 -20 -20 -20 -19 -19 -18 -17
-13 -14 -14 -14 -15 -16 -16 -16 -16 -16 -16 -17 -17 -17 -17 -18 -18 -18 -19 -19 -19 -20 -20 -20 -19 -20 -19 -20 -19 -20 -21 -21 -22 -21 -21 -21 -20 -20 -20 -20 -20 -20 -19 -18 -18
-13 -14 -14 -14 -15 -15 -16 -16 -17 -17 -17 -18 -18 -17 -17 -17 -18 -18 -19 -19 -20 -20 -20 -20 -19 -20 -19 -20 -20 -20 -21 -21 -21 -21 -21 -21 -20 -20 -20 -20 -20 -19 -19 -18 -18
-14 -14 -15 -15 -15 -15 -16 -16 -17 -17 -17 -17 -17 -18 -18 -18 -18 -18 -18 -19 -20 -21 -20 -20 -20 -20 -20 -20 -20 -20 -21 -21 -21 -21 -21 -21 -21 -20 -20 -20 -20 -20 -19 -18 -19
-14 -15 -15 -15 -15 -15 -16 -16 -17 -17 -17 -18 -17 -17 -18 -18 -19 -19 -18 -19 -19 -20 -21 -20 -20 -20 -19 -20 -20 -20 -21 -21 -21 -21 -21 -20 -21 -20 -20 -19 -20 -21 -18 -18 -18

GFSSW_500_temp_072.txt.gz
Temp
-13 -13 -13 -12 -12 -12 -12 -12 -12 -12 -12 -12 -12 -12 -12 -12 -12 -12 -12 -12 -12 -12 -12 -13 -13 -13 -13 -14 -13 -14 -13 -11 -12 -12 -11 -12 -10 -11 -9 -9 -10 -10 -10 -9 -9
-13 -13 -13 -13 -12 -12 -12 -12 -12 -12 -12 -12 -12 -12 -12 -13 -13 -13 -13 -12 -12 -12 -13 -13 -13 -13 -14 -14 -14 -14 -13 -12 -13 -13 -11 -11 -11 -11 -10 -9 -10 -10 -10 -10 -9
-14 -13 -13 -13 -13 -12 -12 -12 -12 -12 -12 -12 -12 -12 -13 -13 -13 -13 -13 -13 -13 -13 -13 -13 -14 -14 -14 -14 -14 -14 -13 -13 -13 -13 -11 -12 -11 -12 -10 -9 -10 -11 -10 -11 -10
-14 -13 -13 -13 -13 -13 -12 -12 -12 -13 -13 -13 -13 -13 -13 -14 -13 -13 -13 -13 -14 -14 -13 -14 -14 -14 -14 -14 -15 -14 -14 -13 -13 -13 -13 -12 -12 -11 -11 -10 -10 -11 -11 -11 -10
-14 -14 -14 -13 -13 -13 -12 -12 -12 -12 -13 -13 -14 -14 -14 -14 -14 -14 -14 -14 -14 -14 -14 -14 -15 -15 -15 -15 -15 -15 -14 -13 -13 -13 -13 -13 -12 -12 -10 -11 -11 -12 -11 -11 -11
-14 -14 -14 -13 -13 -13 -13 -13 -13 -13 -13 -13 -13 -14 -14 -14 -14 -14 -14 -14 -14 -14 -14 -14 -15 -15 -15 -15 -15 -15 -14 -14 -14 -14 -14 -13 -13 -12 -11 -12 -12 -12 -12 -12 -11
-15 -14 -14 -14 -13 -13 -13 -13 -13 -13 -13 -13 -13 -14 -14 -14 -14 -14 -14 -14 -14 -14 -14 -14 -15 -15 -15 -15 -15 -14 -14 -14 -13 -13 -13 -13 -12 -10 -12 -12 -12 -12 -12 -12 -11
-14 -14 -14 -14 -14 -13 -13 -13 -13 -13 -13 -13 -13 -14 -14 -14 -15 -14 -14 -14 -14 -14 -15 -14 -15 -15 -15 -15 -15 -15 -14 -14 -14 -13 -13 -13 -11 -12 -13 -12 -11 -12 -12 -12 -12
-14 -14 -14 -14 -14 -14 -14 -13 -13 -13 -13 -13 -13 -14 -14 -15 -15 -15 -15 -15 -15 -15 -15 -15 -15 -15 -15 -15 -15 -14 -14 -14 -14 -14 -13 -12 -11 -11 -12 -12 -12 -12 -13 -12 -13
-14 -13 -13 -14 -14 -14 -14 -14 -14 -14 -14 -14 -14 -14 -14 -14 -15 -15 -15 -15 -15 -15 -15 -15 -15 -15 -15 -15 -15 -14 -14 -14 -14 -14 -13 -13 -11 -12 -12 -12 -13 -13 -12 -13 -12
-13 -13 -13 -13 -14 -14 -14 -14 -14 -14 -14 -14 -14 -14 -14 -14 -15 -15 -15 -15 -15 -15 -15 -15 -15 -15 -15 -15 -15 -14 -14 -14 -14 -14 -13 -13 -12 -12 -12 -12 -12 -12 -13 -13 -12
-13 -13 -13 -13 -14 -14 -14 -14 -14 -14 -14 -14 -14 -14 -14 -14 -15 -15 -15 -15 -16 -16 -15 -15 -16 -15 -15 -15 -15 -15 -15 -14 -14 -14 -13 -13 -12 -12 -12 -12 -12 -12 -12 -13 -13
-13 -13 -13 -13 -14 -14 -14 -14 -15 -15 -15 -15 -15 -15 -15 -15 -15 -15 -16 -16 -16 -16 -16 -16 -16 -16 -16 -16 -15 -15 -15 -14 -14 -14 -13 -13 -12 -12 -12 -12 -12 -12 -12 -12 -12
-13 -13 -13 -13 -14 -14 -14 -14 -15 -15 -15 -15 -15 -15 -15 -15 -16 -16 -16 -16 -16 -16 -16 -16 -16 -16 -16 -16 -16 -16 -15 -15 -14 -14 -14 -14 -12 -12 -13 -13 -13 -12 -12 -12 -12
-13 -13 -13 -14 -14 -14 -14 -14 -15 -15 -15 -15 -15 -15 -15 -16 -16 -16 -16 -16 -17 -17 -17 -17 -17 -17 -17 -17 -17 -16 -16 -16 -15 -15 -14 -14 -14 -11 -12 -13 -13 -13 -13 -12 -12
-13 -13 -14 -14 -14 -14 -14 -15 -15 -15 -15 -15 -16 -16 -16 -16 -16 -17 -17 -17 -17 -17 -18 -18 -18 -18 -18 -18 -17 -17 -17 -17 -17 -17 -15 -16 -15 -12 -13 -13 -13 -12 -13 -13 -12
-13 -13 -13 -14 -14 -14 -15 -15 -15 -15 -15 -15 -16 -16 -16 -16 -16 -17 -17 -17 -17 -18 -18 -18 -18 -19 -19 -19 -18 -18 -17 -17 -16 -16 -16 -16 -14 -13 -13 -13 -14 -13 -13 -12 -12
-13 -13 -13 -14 -14 -14 -15 -15 -15 -15 -15 -15 -16 -16 -16 -16 -16 -17 -17 -18 -18 -18 -18 -18 -19 -19 -19 -19 -18 -18 -18 -19 -18 -17 -17 -17 -15 -13 -14 -13 -14 -14 -14 -13 -13
-13 -13 -14 -14 -14 -15 -15 -15 -15 -15 -16 -16 -16 -16 -16 -16 -17 -17 -18 -18 -18 -19 -19 -19 -18 -19 -19 -19 -19 -18 -19 -19 -18 -18 -17 -17 -17 -16 -17 -15 -17 -18 -18 -17 -15
-13 -13 -14 -14 -14 -14 -15 -15 -16 -16 -16 -16 -16 -16 -17 -17 -17 -17 -18 -18 -19 -19 -19 -19 -19 -19 -20 -19 -19 -19 -19 -19 -19 -18 -18 -17 -18 -19 -20 -21 -21 -21 -21 -20 -19
-13 -13 -13 -14 -14 -15 -15 -16 -16 -16 -16 -16 -16 -17 -17 -17 -17 -17 -18 -18 -19 -19 -19 -19 -19 -19 -20 -20 -19 -19 -19 -19 -19 -19 -20 -19 -18 -20 -21 -21 -21 -21 -20 -20 -20
-13 -13 -14 -14 -14 -14 -15 -15 -16 -16 -17 -17 -17 -17 -17 -17 -17 -18 -18 -18 -18 -19 -19 -20 -20 -19 -20 -20 -19 -20 -19 -19 -19 -19 -19 -20 -18 -20 -21 -21 -21 -20 -20 -20 -19
-13 -13 -14 -14 -14 -15 -15 -15 -16 -16 -17 -17 -17 -17 -17 -18 -17 -18 -18 -18 -18 -19 -19 -19 -19 -20 -20 -20 -20 -19 -19 -20 -19 -19 -19 -20 -19 -21 -21 -21 -21 -20 -20 -20 -19
-13 -13 -14 -14 -15 -15 -15 -15 -15 -16 -17 -17 -17 -17 -17 -18 -18 -18 -18 -18 -19 -19 -19 -19 -19 -20 -20 -20 -20 -20 -20 -20 -19 -20 -20 -19 -20 -21 -22 -21 -20 -20 -20 -20 -19
-14 -14 -14 -15 -15 -15 -15 -15 -15 -16 -17 -17 -17 -18 -18 -18 -18 -18 -19 -18 -19 -19 -19 -19 -20 -21 -20 -20 -20 -20 -20 -20 -20 -20 -20 -20 -20 -22 -21 -20 -20 -20 -20 -20 -19
-14 -14 -15 -15 -15 -15 -15 -15 -15 -15 -16 -17 -18 -18 -18 -18 -18 -18 -18 -19 -19 -20 -19 -20 -20 -21 -20 -20 -20 -20 -20 -20 -21 -21 -20 -20 -20 -21 -21 -21 -21 -20 -20 -20 -19
-15 -15 -15 -15 -16 -16 -15 -15 -15 -15 -16 -17 -17 -17 -18 -18 -19 -19 -19 -19 -20 -20 -20 -19 -20 -21 -20 -20 -20 -20 -20 -21 -20 -21 -21 -21 -21 -21 -21 -21 -21 -21 -20 -19 -19

GFSSW_500_temp_075.txt.gz
Temp
-13 -13 -13 -13 -13 -12 -12 -12 -12 -12 -11 -11 -11 -11 -11 -11 -11 -11 -11 -11 -11 -11 -12 -12 -12 -12 -12 -12 -12 -13 -12 -13 -12 -12 -12 -12 -10 -9 -10 -10 -10 -10 -10 -10 -9
-13 -13 -13 -12 -12 -12 -12 -12 -12 -12 -11 -11 -11 -11 -11 -11 -11 -11 -12 -12 -12 -12 -12 -12 -12 -12 -12 -13 -13 -13 -13 -13 -13 -13 -12 -12 -11 -10 -10 -11 -11 -10 -11 -10 -10
-14 -13 -13 -13 -12 -12 -12 -12 -12 -12 -12 -12 -12 -12 -11 -11 -11 -11 -12 -12 -12 -12 -12 -12 -12 -12 -12 -13 -13 -13 -13 -13 -13 -13 -13 -12 -12 -12 -11 -11 -11 -11 -11 -11 -10
-14 -13 -13 -13 -13 -12 -12 -12 -12 -12 -12 -12 -12 -12 -12 -12 -12 -12 -12 -12 -13 -13 -13 -13 -12 -12 -13 -13 -13 -13 -13 -14 -14 -13 -13 -12 -13 -12 -11 -11 -12 -11 -11 -11 -11
-14 -14 -13 -13 -13 -13 -12 -12 -12 -12 -12 -12 -12 -12 -12 -13 -13 -13 -13 -13 -13 -13 -13 -13 -13 -13 -13 -13 -13 -13 -14 -14 -14 -14 -14 -13 -13 -13 -11 -11 -13 -12 -11 -11 -10
-14 -14 -13 -13 -13 -13 -13 -13 -12 -12 -12 -12 -12 -13 -13 -13 -14 -14 -14 -14 -14 -14 -14 -14 -14 -14 -14 -14 -14 -14 -14 -14 -15 -15 -14 -14 -13 -13 -12 -12 -13 -13 -11 -11 -10
-14 -14 -14 -13 -13 -13 -13 -13 -13 -13 -13 -13 -13 -13 -13 -13 -14 -14 -14 -14 -14 -14 -14 -14 -14 -14 -14 -14 -15 -15 -15 -15 -15 -15 -15 -14 -13 -13 -13 -13 -12 -13 -12 -11 -11
-14 -13 -13 -13 -13 -13 -13 -13 -13 -13 -13 -13 -13 -13 -13 -13 -13 -14 -14 -14 -14 -14 -14 -14 -14 -14 -15 -15 -15 -15 -15 -15 -15 -15 -15 -14 -13 -14 -13 -13 -12 -12 -12 -12 -11
-13 -13 -13 -13 -13 -13 -14 -14 -14 -13 -13 -13 -13 -13 -13 -13 -13 -14 -14 -14 -15 -15 -15 -14 -15 -15 -15 -15 -15 -15 -15 -15 -15 -15 -15 -14 -14 -14 -14 -13 -13 -12 -12 -13 -11
-13 -13 -12 -13 -13 -13 -13 -14 -14 -14 -14 -14 -14 -14 -13 -14 -14 -14 -14 -14 -15 -15 -15 -15 -15 -15 -15 -15 -15 -15 -15 -15 -15 -15 -15 -14 -14 -13 -13 -14 -14 -14 -13 -13 -13
-12 -12 -12 -13 -13 -13 -14 -14 -14 -14 -14 -14 -14 -14 -14 -14 -14 -14 -14 -14 -15 -15 -15 -16 -16 -15 -15 -15 -15 -15 -15 -15 -15 -15 -14 -14 -14 -13 -13 -13 -13 -13 -14 -13 -13
-13 -13 -12 -13 -13 -13 -13 -13 -14 -14 -14 -14 -14 -14 -14 -14 -15 -15 -15 -15 -15 -16 -16 -16 -16 -16 -16 -16 -16 -15 -15 -15 -15 -15 -14 -14 -14 -14 -13 -13 -13 -13 -13 -13 -14
-13 -13 -13 -13 -13 -13 -13 -13 -14 -14 -14 -14 -14 -15 -15 -15 -15 -15 -16 -16 -16 -16 -16 -16 -16 -16 -16 -16 -16 -16 -16 -15 -15 -15 -15 -14 -14 -14 -14 -13 -13 -13 -13 -13 -13
-13 -13 -13 -13 -13 -14 -14 -14 -14 -14 -14 -14 -14 -15 -15 -16 -16 -16 -16 -16 -16 -16 -16 -17 -17 -17 -17 -17 -16 -16 -16 -16 -15 -15 -15 -15 -13 -14 -14 -14 -14 -13 -13 -13 -13
-12 -13 -13 -13 -14 -14 -14 -14 -14 -14 -14 -15 -15 -15 -15 -15 -16 -16 -16 -16 -17 -17 -17 -18 -17 -17 -18 -18 -17 -17 -16 -16 -16 -15 -15 -16 -14 -13 -13 -14 -14 -14 -13 -13 -13
-12 -13 -13 -13 -13 -14 -14 -14 -14 -15 -15 -15 -15 -15 -16 -16 -16 -16 -16 -17 -17 -17 -18 -18 -18 -18 -18 -18 -18 -17 -17 -17 -16 -16 -16 -16 -16 -13 -14 -14 -14 -14 -14 -13 -13
-12 -13 -13 -13 -13 -14 -14 -14 -15 -15 -15 -15 -15 -16 -16 -16 -16 -16 -17 -17 -17 -18 -18 -19 -19 -19 -19 -19 -19 -18 -19 -18 -17 -17 -17 -16 -15 -14 -16 -15 -15 -14 -14 -14 -14
-12 -13 -13 -13 -13 -14 -14 -14 -15 -15 -15 -15 -16 -16 -16 -16 -16 -16 -16 -17 -17 -18 -18 -19 -19 -19 -19 -20 -19 -19 -19 -19 -18 -17 -17 -16 -15 -15 -16 -16 -15 -14 -14 -14 -14
-12 -13 -13 -13 -13 -14 -14 -14 -15 -15 -15 -16 -16 -16 -16 -16 -16 -16 -17 -17 -17 -18 -18 -18 -18 -19 -20 -19 -19 -19 -19 -19 -19 -18 -18 -17 -16 -16 -17 -18 -17 -17 -16 -15 -14
-12 -13 -13 -13 -14 -14 -14 -14 -15 -15 -15 -16 -16 -16 -17 -17 -17 -17 -17 -17 -17 -18 -18 -18 -18 -19 -19 -19 -19 -19 -19 -19 -19 -18 -18 -17 -17 -16 -18 -19 -19 -18 -17 -17 -16
-13 -13 -13 -13 -14 -14 -14 -14 -15 -15 -16 -16 -16 -17 -17 -17 -17 -17 -17 -18 -18 -18 -18 -19 -19 -19 -19 -20 -20 -19 -19 -19 -19 -19 -19 -18 -16 -19 -20 -20 -19 -20 -21 -21 -20
-13 -14 -14 -14 -14 -14 -14 -15 -15 -15 -16 -16 -16 -17 -17 -17 -17 -18 -18 -18 -18 -18 -18 -19 -18 -19 -20 -20 -20 -20 -20 -20 -19 -19 -19 -19 -17 -20 -20 -21 -20 -20 -20 -20 -20
-14 -14 -14 -14 -15 -15 -15 -15 -15 -16 -16 -16 -16 -17 -17 -17 -18 -17 -18 -19 -18 -18 -18 -19 -18 -19 -19 -20 -20 -20 -20 -20 -20 -19 -19 -19 -18 -20 -20 -20 -20 -20 -20 -20 -20
-14 -14 -15 -15 -15 -15 -16 -16 -16 -16 -16 -16 -16 -17 -17 -17 -18 -18 -18 -18 -19 -19 -19 -19 -19 -19 -20 -21 -20 -21 -20 -20 -20 -20 -20 -19 -18 -20 -21 -20 -21 -20 -20 -20 -19
-14 -14 -14 -15 -15 -15 -16 -16 -16 -16 -16 -16 -16 -17 -17 -17 -18 -18 -19 -19 -19 -20 -20 -20 -19 -20 -20 -20 -21 -21 -20 -20 -20 -20 -20 -20 -20 -20 -20 -20 -21 -21 -20 -20 -20
-14 -14 -14 -15 -15 -15 -15 -15 -16 -16 -16 -16 -16 -17 -17 -18 -18 -19 -19 -19 -20 -21 -21 -21 -20 -20 -20 -21 -21 -21 -21 -20 -21 -21 -20 -20 -20 -21 -20 -20 -21 -21 -21 -20 -19
-14 -14 -14 -15 -15 -15 -15 -15 -15 -16 -16 -16 -16 -16 -17 -18 -18 -18 -19 -20 -20 -21 -21 -21 -21 -21 -20 -21 -21 -21 -21 -21 -21 -21 -21 -20 -20 -20 -20 -20 -20 -21 -20 -20 -20